Weather History for UMBB - March, 2013

Change the Weather History Date:

Saturday, March 2, 2013

  Actual Average Record
Temperature  
Mean Temperature 33 °F -  
Max Temperature 34 °F - - ()
Min Temperature 31 °F - - ()
Degree Days  
Heating Degree Days 32    
Moisture  
Dew Point 25 °F    
Average Humidity 70    
Maximum Humidity 87    
Minimum Humidity 38    
Precipitation  
Precipitation 0.00 in - - ()
Sea Level Pressure  
Sea Level Pressure 29.94 in    
Wind  
Wind Speed 12 mph ()    
Max Wind Speed 18 mph    
Max Gust Speed 29 mph    
Visibility 5.2 miles    
Events Rain , Snow , Hail    
T = Trace of Precipitation, MM = Missing Value Source: Averaged Metar Reports

Daily Weather History Graph

Daily Weather History Graph

Search for Another Location

Airport or City:

Trip Planner

Search our weather history database for the weather conditions in past years. The results will help you decide how hot, cold, wet, or windy it might be!

Date:

Astronomy

Mar. 02, 2013 Rise Set
Actual Time 8:08 AM FET 7:05 PM FET
Civil Twilight 7:34 AM FET 7:39 PM FET
Nautical Twilight 6:55 AM FET 8:18 PM FET
Astronomical Twilight 6:15 AM FET 8:58 PM FET
Moon No Moon Rise 9:41 AM FET
Length of Visible Light 12h 05m
Length of Day
10h 57m
Waning Gibbous, 77% of the Moon is Illuminated
Mar 2
Waning Gibbous
Mar 5
Last Quarter
Mar 11
New
Mar 19
First Quarter
Mar 27
Full

Hourly Weather History & Observations

Time (FET) Temp. Windchill Dew Point Humidity Pressure Visibility Wind Dir Wind Speed Gust Speed Precip Events Conditions
12:00 AM 35 °F - 24 °F 53% 29.92 in 6 mi NW 11.2 mph - -   Mostly Cloudy
3:00 AM 33 °F - 26 °F 65% 29.93 in 6 mi WNW 8.9 mph - -   Mostly Cloudy
5:00 AM 33.8 °F 23.0 °F 23.0 °F 65% 29.89 in 5.6 mi WNW 17.9 mph 29.1 mph N/A   Overcast
6:00 AM 32 °F - 29 °F 82% 29.94 in 5 mi WNW 8.9 mph - - Hail Light Hail Showers
6:00 AM 32.0 °F 21.4 °F 24.8 °F 75% 29.89 in 4.3 mi West 15.7 mph 26.8 mph N/A Rain , Snow Light Snow Showers
7:00 AM 32.0 °F 23.2 °F 28.4 °F 87% 29.89 in 5.0 mi WNW 11.2 mph 17.9 mph N/A   Overcast
8:00 AM 32.0 °F 23.2 °F 28.4 °F 87% 29.89 in 3.7 mi WNW 11.2 mph 17.9 mph N/A Rain , Snow Light Snow Showers
9:00 AM 32 °F - 29 °F 83% 29.95 in 3 mi WNW 8.9 mph - -   Mist
9:00 AM 32.0 °F 23.2 °F 28.4 °F 87% 29.89 in 3.7 mi WNW 11.2 mph 17.9 mph N/A Rain , Snow Light Snow Showers
10:00 AM 32.0 °F 21.4 °F 28.4 °F 87% 29.92 in 5.6 mi NW 15.7 mph 22.4 mph N/A   Overcast
10:30 AM 32.0 °F 20.6 °F 28.4 °F 87% 29.92 in 5.6 mi WNW 17.9 mph 29.1 mph N/A   Overcast
11:00 AM 32.0 °F 21.4 °F 26.6 °F 80% 29.92 in 5.6 mi WNW 15.7 mph 26.8 mph N/A   Overcast
12:00 PM 32 °F - 23 °F 57% 30.00 in 4 mi NW 11.2 mph - - Snow Light Snow
12:00 PM 32.0 °F 20.6 °F 26.6 °F 80% 29.95 in 4.3 mi NW 17.9 mph 29.1 mph N/A Rain , Snow Light Snow Showers
1:00 PM 32.0 °F 21.4 °F 24.8 °F 75% 29.95 in 5.6 mi NW 15.7 mph 26.8 mph N/A   Overcast
1:30 PM 32.0 °F 20.6 °F 24.8 °F 75% 29.95 in 5.6 mi NW 17.9 mph 29.1 mph N/A   Overcast
2:00 PM 32.0 °F 20.6 °F 23.0 °F 69% 29.95 in 5.6 mi NW 17.9 mph 29.1 mph N/A   Partly Cloudy
2:30 PM 32.0 °F 20.6 °F 23.0 °F 69% 29.95 in 5.6 mi NW 17.9 mph 29.1 mph N/A   Partly Cloudy
3:00 PM 33 °F - 21 °F 48% 30.02 in 6 mi NW 13.4 mph - -   Partly Cloudy
3:00 PM 33.8 °F 23.7 °F 21.2 °F 60% 29.98 in 5.6 mi WNW 15.7 mph 26.8 mph N/A   Partly Cloudy
3:30 PM 33.8 °F 23.7 °F 21.2 °F 60% 29.98 in 5.6 mi WNW 15.7 mph 26.8 mph N/A   Partly Cloudy
4:00 PM 33.8 °F 23.0 °F 21.2 °F 60% 29.98 in 5.6 mi WNW 17.9 mph 29.1 mph N/A   Partly Cloudy
6:00 PM 33 °F - 17 °F 38% 30.02 in 6 mi NW 6.7 mph - -   Scattered Clouds
9:00 PM 32 °F - 21 °F 51% 29.98 in 6 mi SW 4.5 mph - -   Mostly Cloudy